Year,Month,Day,Hour,Minute,Value (Times are PST for temperature in C)
2017,01,13,00,00,-4.30
2017,01,13,00,01,-4.30
2017,01,13,00,02,-4.20
2017,01,13,00,03,-4.20
2017,01,13,00,04,-4.20
2017,01,13,00,05,-4.20
2017,01,13,00,06,-4.20
2017,01,13,00,07,-4.20
2017,01,13,00,08,-4.20
2017,01,13,00,09,-4.10
2017,01,13,00,10,-4.10
2017,01,13,00,11,-4.10
2017,01,13,00,12,-4.10
2017,01,13,00,13,-4.10
2017,01,13,00,14,-4.10
2017,01,13,00,15,-4.10
2017,01,13,00,16,-4.10
2017,01,13,00,17,-4.10
2017,01,13,00,18,-4.00
2017,01,13,00,19,-4.00
2017,01,13,00,20,-4.00
2017,01,13,00,21,-4.00
2017,01,13,00,22,-3.90
2017,01,13,00,23,-3.90
2017,01,13,00,24,-3.90
2017,01,13,00,25,-3.90
2017,01,13,00,26,-3.90
2017,01,13,00,27,-3.90
2017,01,13,00,28,-3.90
2017,01,13,00,29,-3.90
2017,01,13,00,30,-3.90
2017,01,13,00,31,-3.90
2017,01,13,00,32,-3.90
2017,01,13,00,33,-3.90
2017,01,13,00,34,-3.90
2017,01,13,00,35,-3.90
2017,01,13,00,36,-3.90
2017,01,13,00,37,-3.90
2017,01,13,00,38,-3.90
2017,01,13,00,39,-3.90
2017,01,13,00,40,-3.90
2017,01,13,00,41,-3.90
2017,01,13,00,42,-3.80
2017,01,13,00,43,-3.80
2017,01,13,00,44,-3.80
2017,01,13,00,45,-3.80
2017,01,13,00,46,-3.80
2017,01,13,00,47,-3.80
2017,01,13,00,48,-3.80
2017,01,13,00,49,-3.80
2017,01,13,00,50,-3.80
2017,01,13,00,51,-3.80
2017,01,13,00,52,-3.80
2017,01,13,00,53,-3.70
2017,01,13,00,54,-3.70
2017,01,13,00,55,-3.70
2017,01,13,00,56,-3.70
2017,01,13,00,57,-3.70
2017,01,13,00,58,-3.70
2017,01,13,00,59,-3.70
2017,01,13,01,00,-3.70
2017,01,13,01,01,-3.70
2017,01,13,01,02,-3.70
2017,01,13,01,03,-3.70
2017,01,13,01,04,-3.70
2017,01,13,01,05,-3.70
2017,01,13,01,06,-3.70
2017,01,13,01,07,-3.70
2017,01,13,01,08,-3.60
2017,01,13,01,09,-3.60
2017,01,13,01,10,-3.60
2017,01,13,01,11,-3.60
2017,01,13,01,12,-3.60
2017,01,13,01,13,-3.60
2017,01,13,01,14,-3.60
2017,01,13,01,15,-3.60
2017,01,13,01,16,-3.60
2017,01,13,01,17,-3.60
2017,01,13,01,18,-3.60
2017,01,13,01,19,-3.50
2017,01,13,01,20,-3.50
2017,01,13,01,21,-3.50
2017,01,13,01,22,-3.50
2017,01,13,01,23,-3.50
2017,01,13,01,24,-3.50
2017,01,13,01,25,-3.40
2017,01,13,01,26,-3.40
2017,01,13,01,27,-3.40
2017,01,13,01,28,-3.40
2017,01,13,01,29,-3.40
2017,01,13,01,30,-3.40
2017,01,13,01,31,-3.40
2017,01,13,01,32,-3.40
2017,01,13,01,33,-3.40
2017,01,13,01,34,-3.30
2017,01,13,01,35,-3.30
2017,01,13,01,36,-3.30
2017,01,13,01,37,-3.30
2017,01,13,01,38,-3.30
2017,01,13,01,39,-3.30
2017,01,13,01,40,-3.30
2017,01,13,01,41,-3.30
2017,01,13,01,42,-3.20
2017,01,13,01,43,-3.20
2017,01,13,01,44,-3.20
2017,01,13,01,45,-3.20
2017,01,13,01,46,-3.20
2017,01,13,01,47,-3.20
2017,01,13,01,48,-3.20
2017,01,13,01,49,-3.20
2017,01,13,01,50,-3.20
2017,01,13,01,51,-3.20
2017,01,13,01,52,-3.20
2017,01,13,01,53,-3.20
2017,01,13,01,54,-3.20
2017,01,13,01,55,-3.20
2017,01,13,01,56,-3.20
2017,01,13,01,57,-3.20
2017,01,13,01,58,-3.20
2017,01,13,01,59,-3.20
2017,01,13,02,00,-3.10
2017,01,13,02,01,-3.10
2017,01,13,02,02,-3.10
2017,01,13,02,03,-3.10
2017,01,13,02,04,-3.10
2017,01,13,02,05,-3.10
2017,01,13,02,06,-3.10
2017,01,13,02,07,-3.10
2017,01,13,02,08,-3.10
2017,01,13,02,09,-3.00
2017,01,13,02,10,-3.00
2017,01,13,02,11,-3.00
2017,01,13,02,12,-3.00
2017,01,13,02,13,-3.00
2017,01,13,02,14,-3.00
2017,01,13,02,15,-3.00
2017,01,13,02,16,-2.90
2017,01,13,02,17,-2.90
2017,01,13,02,18,-2.90
2017,01,13,02,19,-2.90
2017,01,13,02,20,-2.90
2017,01,13,02,21,-2.90
2017,01,13,02,22,-2.90
2017,01,13,02,23,-2.90
2017,01,13,02,24,-2.90
2017,01,13,02,25,-2.90
2017,01,13,02,26,-2.90
2017,01,13,02,27,-2.80
2017,01,13,02,28,-2.80
2017,01,13,02,29,-2.80
2017,01,13,02,30,-2.80
2017,01,13,02,31,-2.70
2017,01,13,02,32,-2.70
2017,01,13,02,33,-2.70
2017,01,13,02,34,-2.70
2017,01,13,02,35,-2.60
2017,01,13,02,36,-2.60
2017,01,13,02,37,-2.60
2017,01,13,02,38,-2.60
2017,01,13,02,39,-2.60
2017,01,13,02,40,-2.60
2017,01,13,02,41,-2.50
2017,01,13,02,42,-2.50
2017,01,13,02,43,-2.50
2017,01,13,02,44,-2.50
2017,01,13,02,45,-2.40
2017,01,13,02,46,-2.40
2017,01,13,02,47,-2.40
2017,01,13,02,48,-2.40
2017,01,13,02,49,-2.40
2017,01,13,02,50,-2.30
2017,01,13,02,51,-2.30
2017,01,13,02,52,-2.30
2017,01,13,02,53,-2.30
2017,01,13,02,54,-2.30
2017,01,13,02,55,-2.30
2017,01,13,02,56,-2.30
2017,01,13,02,57,-2.30
2017,01,13,02,58,-2.30
2017,01,13,02,59,-2.30
2017,01,13,03,00,-2.30
2017,01,13,03,01,-2.40
2017,01,13,03,02,-2.40
2017,01,13,03,03,-2.40
2017,01,13,03,04,-2.40
2017,01,13,03,05,-2.40
2017,01,13,03,06,-2.50
2017,01,13,03,07,-2.50
2017,01,13,03,08,-2.60
2017,01,13,03,09,-2.60
2017,01,13,03,10,-2.60
2017,01,13,03,11,-2.60
2017,01,13,03,12,-2.60
2017,01,13,03,13,-2.60
2017,01,13,03,14,-2.60
2017,01,13,03,15,-2.70
2017,01,13,03,16,-2.70
2017,01,13,03,17,-2.70
2017,01,13,03,18,-2.70
2017,01,13,03,19,-2.70
2017,01,13,03,20,-2.70
2017,01,13,03,21,-2.70
2017,01,13,03,22,-2.70
2017,01,13,03,23,-2.70
2017,01,13,03,24,-2.70
2017,01,13,03,25,-2.70
2017,01,13,03,26,-2.70
2017,01,13,03,27,-2.70
2017,01,13,03,28,-2.70
2017,01,13,03,29,-2.70
2017,01,13,03,30,-2.70
2017,01,13,03,31,-2.70
2017,01,13,03,32,-2.70
2017,01,13,03,33,-2.70
2017,01,13,03,34,-2.70
2017,01,13,03,35,-2.70
2017,01,13,03,36,-2.70
2017,01,13,03,37,-2.70
2017,01,13,03,38,-2.70
2017,01,13,03,39,-2.70
2017,01,13,03,40,-2.70
2017,01,13,03,41,-2.60
2017,01,13,03,42,-2.60
2017,01,13,03,43,-2.60
2017,01,13,03,44,-2.60
2017,01,13,03,45,-2.60
2017,01,13,03,46,-2.60
2017,01,13,03,47,-2.60
2017,01,13,03,48,-2.50
2017,01,13,03,49,-2.50
2017,01,13,03,50,-2.50
2017,01,13,03,51,-2.50
2017,01,13,03,52,-2.50
2017,01,13,03,53,-2.40
2017,01,13,03,54,-2.40
2017,01,13,03,55,-2.40
2017,01,13,03,56,-2.40
2017,01,13,03,57,-2.40
2017,01,13,03,58,-2.40
2017,01,13,03,59,-2.40
2017,01,13,04,00,-2.40
2017,01,13,04,01,-2.40
2017,01,13,04,02,-2.40
2017,01,13,04,03,-2.40
2017,01,13,04,04,-2.40
2017,01,13,04,05,-2.40
2017,01,13,04,06,-2.50
2017,01,13,04,07,-2.50
2017,01,13,04,08,-2.50
2017,01,13,04,09,-2.50
2017,01,13,04,10,-2.60
2017,01,13,04,11,-2.60
2017,01,13,04,12,-2.60
2017,01,13,04,13,-2.60
2017,01,13,04,14,-2.60
2017,01,13,04,15,-2.60
2017,01,13,04,16,-2.60
2017,01,13,04,17,-2.60
2017,01,13,04,18,-2.60
2017,01,13,04,19,-2.60
2017,01,13,04,20,-2.70
2017,01,13,04,21,-2.70
2017,01,13,04,22,-2.70
2017,01,13,04,23,-2.70
2017,01,13,04,24,-2.70
2017,01,13,04,25,-2.70
2017,01,13,04,26,-2.70
2017,01,13,04,27,-2.70
2017,01,13,04,28,-2.70
2017,01,13,04,29,-2.70
2017,01,13,04,30,-2.70
2017,01,13,04,31,-2.70
2017,01,13,04,32,-2.70
2017,01,13,04,33,-2.70
2017,01,13,04,34,-2.70
2017,01,13,04,35,-2.70
2017,01,13,04,36,-2.70
2017,01,13,04,37,-2.70
2017,01,13,04,38,-2.70
2017,01,13,04,39,-2.70
2017,01,13,04,40,-2.70
2017,01,13,04,41,-2.70
2017,01,13,04,42,-2.70
2017,01,13,04,43,-2.70
2017,01,13,04,44,-2.80
2017,01,13,04,45,-2.80
2017,01,13,04,46,-2.80
2017,01,13,04,47,-2.80
2017,01,13,04,48,-2.80
2017,01,13,04,49,-2.80
2017,01,13,04,50,-2.80
2017,01,13,04,51,-2.80
2017,01,13,04,52,-2.80
2017,01,13,04,53,-2.80
2017,01,13,04,54,-2.90
2017,01,13,04,55,-2.90
2017,01,13,04,56,-2.90
2017,01,13,04,57,-2.90
2017,01,13,04,58,-2.90
2017,01,13,04,59,-2.90
2017,01,13,05,00,-2.90
2017,01,13,05,01,-2.90
2017,01,13,05,02,-2.90
2017,01,13,05,03,-2.90
2017,01,13,05,04,-2.90
2017,01,13,05,05,-2.90
2017,01,13,05,06,-2.90
2017,01,13,05,07,-2.90
2017,01,13,05,08,-2.90
2017,01,13,05,09,-2.90
2017,01,13,05,10,-2.90
2017,01,13,05,11,-2.90
2017,01,13,05,12,-2.80
2017,01,13,05,13,-2.80
2017,01,13,05,14,-2.80
2017,01,13,05,15,-2.80
2017,01,13,05,16,-2.80
2017,01,13,05,17,-2.80
2017,01,13,05,18,-2.80
2017,01,13,05,19,-2.70
2017,01,13,05,20,-2.70
2017,01,13,05,21,-2.70
2017,01,13,05,22,-2.70
2017,01,13,05,23,-2.70
2017,01,13,05,24,-2.70
2017,01,13,05,25,-2.70
2017,01,13,05,26,-2.70
2017,01,13,05,27,-2.70
2017,01,13,05,28,-2.70
2017,01,13,05,29,-2.70
2017,01,13,05,30,-2.70
2017,01,13,05,31,-2.70
2017,01,13,05,32,-2.70
2017,01,13,05,33,-2.70
2017,01,13,05,34,-2.80
2017,01,13,05,35,-2.80
2017,01,13,05,36,-2.80
2017,01,13,05,37,-2.80
2017,01,13,05,38,-2.80
2017,01,13,05,39,-2.80
2017,01,13,05,40,-2.80
2017,01,13,05,41,-2.90
2017,01,13,05,42,-2.90
2017,01,13,05,43,-2.90
2017,01,13,05,44,-2.90
2017,01,13,05,45,-2.90
2017,01,13,05,46,-2.90
2017,01,13,05,47,-2.90
2017,01,13,05,48,-2.90
2017,01,13,05,49,-2.90
2017,01,13,05,50,-2.90
2017,01,13,05,51,-2.90
2017,01,13,05,52,-2.90
2017,01,13,05,53,-2.90
2017,01,13,05,54,-2.90
2017,01,13,05,55,-2.90
2017,01,13,05,56,-2.90
2017,01,13,05,57,-2.90
2017,01,13,05,58,-2.90
2017,01,13,05,59,-2.90
2017,01,13,06,00,-2.90
2017,01,13,06,01,-2.90
2017,01,13,06,02,-2.90
2017,01,13,06,03,-2.90
2017,01,13,06,04,-2.90
2017,01,13,06,05,-3.00
2017,01,13,06,06,-3.00
2017,01,13,06,07,-3.00
2017,01,13,06,08,-3.00
2017,01,13,06,09,-3.00
2017,01,13,06,10,-3.00
2017,01,13,06,11,-3.00
2017,01,13,06,12,-3.00
2017,01,13,06,13,-3.00
2017,01,13,06,14,-3.00
2017,01,13,06,15,-2.90
2017,01,13,06,16,-3.00
2017,01,13,06,17,-3.00
2017,01,13,06,18,-3.00
2017,01,13,06,19,-3.00
2017,01,13,06,20,-3.00
2017,01,13,06,21,-3.00
2017,01,13,06,22,-3.00
2017,01,13,06,23,-3.00
2017,01,13,06,24,-3.00
2017,01,13,06,25,-3.00
2017,01,13,06,26,-3.00
2017,01,13,06,27,-2.90
2017,01,13,06,28,-2.90
2017,01,13,06,29,-2.90
2017,01,13,06,30,-2.90
2017,01,13,06,31,-2.90
2017,01,13,06,32,-2.90
2017,01,13,06,33,-2.90
2017,01,13,06,34,-2.90
2017,01,13,06,35,-2.90
2017,01,13,06,36,-2.90
2017,01,13,06,37,-2.90
2017,01,13,06,38,-2.90
2017,01,13,06,39,-2.90
2017,01,13,06,40,-2.90
2017,01,13,06,41,-2.80
2017,01,13,06,42,-2.80
2017,01,13,06,43,-2.80
2017,01,13,06,44,-2.80
2017,01,13,06,45,-2.80
2017,01,13,06,46,-2.80
2017,01,13,06,47,-2.80
2017,01,13,06,48,-2.80
2017,01,13,06,49,-2.80
2017,01,13,06,50,-2.80
2017,01,13,06,51,-2.80
2017,01,13,06,52,-2.80
2017,01,13,06,53,-2.80
2017,01,13,06,54,-2.80
2017,01,13,06,55,-2.80
2017,01,13,06,56,-2.80
2017,01,13,06,57,-2.80
2017,01,13,06,58,-2.80
2017,01,13,06,59,-2.80
2017,01,13,07,00,-2.80
2017,01,13,07,01,-2.80
2017,01,13,07,02,-2.90
2017,01,13,07,03,-2.90
2017,01,13,07,04,-2.90
2017,01,13,07,05,-2.90
2017,01,13,07,06,-2.90
2017,01,13,07,07,-2.80
2017,01,13,07,08,-2.90
2017,01,13,07,09,-2.80
2017,01,13,07,10,-2.80
2017,01,13,07,11,-2.80
2017,01,13,07,12,-2.80
2017,01,13,07,13,-2.80
2017,01,13,07,14,-2.90
2017,01,13,07,15,-2.90
2017,01,13,07,16,-2.90
2017,01,13,07,17,-2.90
2017,01,13,07,18,-2.90
2017,01,13,07,19,-2.90
2017,01,13,07,20,-2.90
2017,01,13,07,21,-2.90
2017,01,13,07,22,-3.00
2017,01,13,07,23,-3.00
2017,01,13,07,24,-3.00
2017,01,13,07,25,-3.00
2017,01,13,07,26,-3.10
2017,01,13,07,27,-3.10
2017,01,13,07,28,-3.10
2017,01,13,07,29,-3.10
2017,01,13,07,30,-3.10
2017,01,13,07,31,-3.10
2017,01,13,07,32,-3.10
2017,01,13,07,33,-3.20
2017,01,13,07,34,-3.20
2017,01,13,07,35,-3.20
2017,01,13,07,36,-3.20
2017,01,13,07,37,-3.20
2017,01,13,07,38,-3.20
2017,01,13,07,39,-3.20
2017,01,13,07,40,-3.20
2017,01,13,07,41,-3.20
2017,01,13,07,42,-3.20
2017,01,13,07,43,-3.20
2017,01,13,07,44,-3.20
2017,01,13,07,45,-3.20
2017,01,13,07,46,-3.30
2017,01,13,07,47,-3.30
2017,01,13,07,48,-3.30
2017,01,13,07,49,-3.30
2017,01,13,07,50,-3.30
2017,01,13,07,51,-3.30
2017,01,13,07,52,-3.30
2017,01,13,07,53,-3.30
2017,01,13,07,54,-3.30
2017,01,13,07,55,-3.30
2017,01,13,07,56,-3.30
2017,01,13,07,57,-3.30
2017,01,13,07,58,-3.30
2017,01,13,07,59,-3.30
2017,01,13,08,00,-3.30
2017,01,13,08,01,-3.30
2017,01,13,08,02,-3.30
2017,01,13,08,03,-3.30
2017,01,13,08,04,-3.30
2017,01,13,08,05,-3.30
2017,01,13,08,06,-3.30
2017,01,13,08,07,-3.30
2017,01,13,08,08,-3.30
2017,01,13,08,09,-3.30
2017,01,13,08,10,-3.30
2017,01,13,08,11,-3.30
2017,01,13,08,12,-3.30
2017,01,13,08,13,-3.30
2017,01,13,08,14,-3.30
2017,01,13,08,15,-3.30
2017,01,13,08,16,-3.30
2017,01,13,08,17,-3.30
2017,01,13,08,18,-3.30
2017,01,13,08,19,-3.30
2017,01,13,08,20,-3.30
2017,01,13,08,21,-3.30
2017,01,13,08,22,-3.30
2017,01,13,08,23,-3.30
2017,01,13,08,24,-3.30
2017,01,13,08,25,-3.30
2017,01,13,08,26,-3.30
2017,01,13,08,27,-3.30
2017,01,13,08,28,-3.30
2017,01,13,08,29,-3.30
2017,01,13,08,30,-3.30
2017,01,13,08,31,-3.40
2017,01,13,08,32,-3.40
2017,01,13,08,33,-3.40
2017,01,13,08,34,-3.40
2017,01,13,08,35,-3.40
2017,01,13,08,36,-3.40
2017,01,13,08,37,-3.40
2017,01,13,08,38,-3.30
2017,01,13,08,39,-3.30
2017,01,13,08,40,-3.30
2017,01,13,08,41,-3.30
2017,01,13,08,42,-3.30
2017,01,13,08,43,-3.30
2017,01,13,08,44,-3.30
2017,01,13,08,45,-3.20
2017,01,13,08,46,-3.20
2017,01,13,08,47,-3.20
2017,01,13,08,48,-3.20
2017,01,13,08,49,-3.20
2017,01,13,08,50,-3.20
2017,01,13,08,51,-3.20
2017,01,13,08,52,-3.20
2017,01,13,08,53,-3.20
2017,01,13,08,54,-3.20
2017,01,13,08,55,-3.20
2017,01,13,08,56,-3.20
2017,01,13,08,57,-3.20
2017,01,13,08,58,-3.20
2017,01,13,08,59,-3.20
2017,01,13,09,00,-3.20
2017,01,13,09,01,-3.20
2017,01,13,09,02,-3.20
2017,01,13,09,03,-3.20
2017,01,13,09,04,-3.20
2017,01,13,09,05,-3.20
2017,01,13,09,06,-3.20
2017,01,13,09,07,-3.20
2017,01,13,09,08,-3.20
2017,01,13,09,09,-3.20
2017,01,13,09,10,-3.20
2017,01,13,09,11,-3.20
2017,01,13,09,12,-3.20
2017,01,13,09,13,-3.10
2017,01,13,09,14,-3.10
2017,01,13,09,15,-3.10
2017,01,13,09,16,-3.10
2017,01,13,09,17,-3.10
2017,01,13,09,18,-3.10
2017,01,13,09,19,-3.10
2017,01,13,09,20,-3.10
2017,01,13,09,21,-3.10
2017,01,13,09,22,-3.10
2017,01,13,09,23,-3.10
2017,01,13,09,24,-3.10
2017,01,13,09,25,-3.00
2017,01,13,09,26,-3.00
2017,01,13,09,27,-2.90
2017,01,13,09,28,-2.90
2017,01,13,09,29,-2.90
2017,01,13,09,30,-2.90
2017,01,13,09,31,-2.80
2017,01,13,09,32,-2.80
2017,01,13,09,33,-2.80
2017,01,13,09,34,-2.80
2017,01,13,09,35,-2.80
2017,01,13,09,36,-2.80
2017,01,13,09,37,-2.80
2017,01,13,09,38,-2.80
2017,01,13,09,39,-2.80
2017,01,13,09,40,-2.80
2017,01,13,09,41,-2.80
2017,01,13,09,42,-2.80
2017,01,13,09,43,-2.80
2017,01,13,09,44,-2.80
2017,01,13,09,45,-2.80
2017,01,13,09,46,-2.80
2017,01,13,09,47,-2.80
2017,01,13,09,48,-2.80
2017,01,13,09,49,-2.80
2017,01,13,09,50,-2.80
2017,01,13,09,51,-2.80
2017,01,13,09,52,-2.80
2017,01,13,09,53,-2.70
2017,01,13,09,54,-2.70
2017,01,13,09,55,-2.70
2017,01,13,09,56,-2.70
2017,01,13,09,57,-2.70
2017,01,13,09,58,-2.70
2017,01,13,09,59,-2.60
2017,01,13,10,00,-2.60
2017,01,13,10,01,-2.60
2017,01,13,10,02,-2.60
2017,01,13,10,03,-2.50
2017,01,13,10,04,-2.50
2017,01,13,10,05,-2.50
2017,01,13,10,06,-2.50
2017,01,13,10,07,-2.50
2017,01,13,10,08,-2.40
2017,01,13,10,09,-2.40
2017,01,13,10,10,-2.40
2017,01,13,10,11,-2.40
2017,01,13,10,12,-2.40
2017,01,13,10,13,-2.30
2017,01,13,10,14,-2.30
2017,01,13,10,15,-2.30
2017,01,13,10,16,-2.30
2017,01,13,10,17,-2.20
2017,01,13,10,18,-2.20
2017,01,13,10,19,-2.10
2017,01,13,10,20,-2.10
2017,01,13,10,21,-2.00
2017,01,13,10,22,-2.00
2017,01,13,10,23,-1.90
2017,01,13,10,24,-1.90
2017,01,13,10,25,-1.80
2017,01,13,10,26,-1.80
2017,01,13,10,27,-1.70
2017,01,13,10,28,-1.70
2017,01,13,10,29,-1.60
2017,01,13,10,30,-1.60
2017,01,13,10,31,-1.60
2017,01,13,10,32,-1.60
2017,01,13,10,33,-1.60
2017,01,13,10,34,-1.50
2017,01,13,10,35,-1.50
2017,01,13,10,36,-1.40
2017,01,13,10,37,-1.40
2017,01,13,10,38,-1.40
2017,01,13,10,39,-1.30
2017,01,13,10,40,-1.30
2017,01,13,10,41,-1.20
2017,01,13,10,42,-1.20
2017,01,13,10,43,-1.20
2017,01,13,10,44,-1.20
2017,01,13,10,45,-1.10
2017,01,13,10,46,-1.10
2017,01,13,10,47,-1.10
2017,01,13,10,48,-1.10
2017,01,13,10,49,-1.10
2017,01,13,10,50,-1.00
2017,01,13,10,51,-1.00
2017,01,13,10,52,-1.00
2017,01,13,10,53,-1.00
2017,01,13,10,54,-1.00
2017,01,13,10,55,-1.00
2017,01,13,10,56,-1.00
2017,01,13,10,57,-1.00
2017,01,13,10,58,-0.80
2017,01,13,10,59,-0.80
2017,01,13,11,00,-0.70
2017,01,13,11,01,-0.70
2017,01,13,11,02,-0.70
2017,01,13,11,03,-0.60
2017,01,13,11,04,-0.60
2017,01,13,11,05,-0.60
2017,01,13,11,06,-0.60
2017,01,13,11,07,-0.60
2017,01,13,11,08,-0.60
2017,01,13,11,09,-0.50
2017,01,13,11,10,-0.50
2017,01,13,11,11,-0.50
2017,01,13,11,12,-0.40
2017,01,13,11,13,-0.40
2017,01,13,11,14,-0.40
2017,01,13,11,15,-0.30
2017,01,13,11,16,-0.30
2017,01,13,11,17,-0.30
2017,01,13,11,18,-0.30
2017,01,13,11,19,-0.30
2017,01,13,11,20,-0.30
2017,01,13,11,21,-0.30
2017,01,13,11,22,-0.30
2017,01,13,11,23,-0.30
2017,01,13,11,24,-0.30
2017,01,13,11,25,-0.30
